Regional Weather Roundup
Issued by NWS Wilmington, NC

Home | Current Version | Previous Version | Text Only | Print | Product List | Glossary On
Versions: 1 2 3 4 5 6 7 8 9 10 11 12 13 14 15 16 17 18 19 20 21 22 23 24 25 26 27
000
ASUS42 KILM 280213
RWRILM
RWRILM
REGIONAL HOURLY WEATHER ROUNDUP
NATIONAL WEATHER SERVICE WILMINGTON NC
1000 PM EDT FRI MAY 27 2016

NOTE: "FAIR" INDICATES FEW OR NO CLOUDS BELOW 12,000 FEET WITH NO
SIGNIFICANT WEATHER AND/OR OBSTRUCTIONS TO VISIBILITY.

...............WFO WILMINGTON COUNTY WARNING AREA...............

......COASTAL NC AND SC COUNTIES......

CITY           SKY/WX    TMP DP  RH WIND       PRES   REMARKS
WILMINGTON     CLOUDY    72  66  81 E3        30.13R
N MYRTLE BEACH PTCLDY    75  66  73 E7        30.11R
MYRTLE BEACH   CLEAR     75  61  60 E9        30.12R

......INLAND NC AND SC COUNTIES.......

CITY           SKY/WX    TMP DP  RH WIND       PRES   REMARKS
LUMBERTON      CLEAR     70  58  65 CALM      30.11R
ELIZABETHTOWN  CLEAR     71  60  69 SE3       30.13R
WHITEVILLE     CLEAR     66  60  80 CALM      30.12R
FLORENCE       CLEAR     71  58  63 SE6       30.11R
DARLINGTON     CLEAR     72  60  66 SE3       30.12R
KINGSTREE      FAIR      70  57  64 CALM      30.11R
HARTSVILLE     FAIR      72  54  53 SE5       30.11R
BENNETTSVILLE  FAIR      75  61  60 SE5       30.11R
CONWAY         FAIR      64  61  88 CALM      30.12R
GEORGETOWN     CLOUDY    72  63  73 E3        30.11R
MARION         FAIR      68  59  73 CALM      30.11R

....................REST OF NORTH CAROLINA......................

.........EASTERN NC.........

CITY           SKY/WX    TMP DP  RH WIND       PRES   REMARKS
CAPE HATTERAS  CLEAR     74  65  73 SE7       30.17R
JACKSONVILLE   PTCLDY    65  62  90 CALM      30.15R
MOREHEAD CITY  CLEAR     73  63  70 E5        30.14S
KENANSVILLE    CLEAR     66  58  76 CALM      30.15R
NEW BERN       CLEAR     66  59  78 CALM      30.16R
ELIZABETH CITY CLEAR     71  63  75 S7        30.16R

.........CENTRAL NC.........

CITY           SKY/WX    TMP DP  RH WIND       PRES   REMARKS
RALEIGH DURHAM PTCLDY    76  57  51 S8        30.12R
ROCKY MOUNT    CLEAR     73  58  59 S3        30.13R
ROANOKE RAPIDS NOT AVBL
FAYETTEVILLE   CLEAR     73  56  54 SE7       30.12R
HOFFMAN        CLEAR     74  60  61 S9        30.11R

.........WESTERN NC.........

CITY           SKY/WX    TMP DP  RH WIND       PRES   REMARKS
CHARLOTTE      MOCLDY    77  62  59 S6        30.11R
GREENSBORO     CLEAR     75  64  68 CALM      30.11R
HICKORY        NOT AVBL
BOONE          NOT AVBL
ASHEVILLE      NOT AVBL

.....................REST OF SOUTH CAROLINA.....................

.........EASTERN SC.........

CITY           SKY/WX    TMP DP  RH WIND       PRES   REMARKS
CHARLESTON     PTCLDY    74  63  68 E9        30.09R
BEAUFORT MCAS  CLEAR     74  66  76 E5        30.09R
HILTON HEAD    CLEAR     73  68  83 VRB3      30.09R

.........CENTRAL SC.........

CITY           SKY/WX    TMP DP  RH WIND       PRES   REMARKS
COLUMBIA       CLEAR     76  55  48 E3        30.08R
ORANGEBURG     CLEAR     74  60  61 CALM      30.10R
SUMTER SHAW    CLEAR     73  52  48 SE6       30.08R

.........WESTERN SC.........

CITY           SKY/WX    TMP DP  RH WIND       PRES   REMARKS
GREENVILLE     NOT AVBL
ROCK HILL      CLOUDY    77  63  61 CALM      30.11R
ANDERSON       CLEAR     74  63  68 NE3       30.08R
CLEMSON        NOT AVBL
GREENWOOD      CLEAR     75  62  64 SE5       30.10R


...................COASTAL AND OFFSHORE REPORTS..................

................LOCAL PIERS AND NC RESERVE................


STATION/POSITION TIME  SKY/WX   TEMP    WIND        PRES    VSBY
                                AIR SEA DIR/SP/G
                 (UTC)          (F)     (DEG/KT/KT) (MB)    (MI)
JOHNY MRCER PIER 0100                   100/  8/  9 1018.7F
NC RESRV MASNBRO NOT AVBL
OCEAN CREST PIER NOT AVBL
SPRINGMAID  PIER 0100                    60/ 12/ 13 1018.9S


................COASTAL AND OFFSHORE BUOYS................


STATION/POSITION TIME  SKY/WX   TEMP    WIND        PRES    VSBY
                                AIR SEA DIR/SP/G
                 (UTC)          (F)     (DEG/KT/KT) (MB)    (MI)
DIMNDSHOAL 41025 0150            76 78  140/ 10/ 10 1021.2R
WVE H/P(F/S)=  3/ 8 SWL H/P/D(F/S/D)=  2/150/ 8

CAPE LOOKOUT     0200            74      80/  7/  8 1020.5R
ONSLOW BAY 41036 NOT AVBL
ONSLOW BAY 41064 0108            75 75   90/  6/  8 1020.2S
ONSLOW BAY 41159 0125               75                N/A
WVE H/P(F/S)=  3/ 7

5SE WRITBC 41038 NOT AVBL
MASNBO INL 41110 0106               75                N/A
WVE H/P(F/S)=  3/ 5

WILM HARBR 41108 0126               76                N/A
WVE H/P(F/S)=  2/ 7

27SE WRITB 41037 0108            76 74  100/  8/ 10 1019.3F
FRYING PAN 41013 0100            77 76   80/ 12/ 14 1018.8F
SUNST NRSH 41024 0108            76 76  100/ 10/ 14 1019.1R
CAPRS NRSH 41029 0108            76 77   70/ 14/ 17 1018.4R
EDISTO     41004 0150            76 76   70/ 12/ 14 1017.8R
WVE H/P(F/S)=  3/ 8 SWL H/P/D(F/S/D)=  2/ 8



..........OFFSHORE BUOYS BEYOND 100 NM OFFSHORE...........
.....IN A TRIANGLE---HAT TO BERMUDA TO BAHAMAS TO HAT.....


STATION/POSITION TIME  SKY/WX   TEMP    WIND        PRES    VSBY
                                AIR SEA DIR/SP/G
                 (UTC)          (F)     (DEG/KT/KT) (MB)    (MI)
150E HAT   41001 NOT AVBL
W BERMUDA  41048 0150            75 76  140/ 16/ 19 1020.0R
WVE H/P(F/S)=  5/ 6 SWL H/P/D(F/S/D)=  2/130/ 8

ATLANTIC S 41049 0150            78 78   90/ 14/ 17 1022.0R
WVE H/P(F/S)=  4/ 8 SWL H/P/D(F/S/D)=  3/ 80/ 8

E BAHAMAS  41046 0100            80 81   90/ 16/ 19 1016.5R
NE BAHAMAS 41047 0100            76 79  110/ 14/ 19 1016.8R
120E CANVRL41010 0120            77 78   40/ 12/ 16 1014.7F

END




USA.gov is the U.S. government's official web portal to all federal, state and local government web resources and services.